When you browse on this site, cookies collect data to enhance your experience and personalize the content and advertising you see.
Visit our Privacy Policy to learn more. By continuing to use the site, you agree to this use of cookies and data.
  • In Österreich
  • Länderverzeichnis
  • Für 7 Tage
  • Wassertemperatur
  • Satellitenkarten
  • Wetterkarte
  • News
  • Widgets
  • user-avatar
    Anmelden

    Stündliche Wetter Ostashkovo

    Heute, 18 Februar, Montag

    Zeit Temperatur Niederschläge Wind Luftdruck Luftfeuchtigkeit
    00:00 -5°C° 0.1 mm 8 m/S 740 mmHg 78%
    01:00 -6°C° 0 mm 8 m/S 741 mmHg 78%
    02:00 -7°C° 0 mm 8 m/S 742 mmHg 78%
    03:00 -7°C° 0 mm 7 m/S 743 mmHg 78%
    04:00 -8°C° 0 mm 7 m/S 744 mmHg 78%
    05:00 -8°C° 0 mm 7 m/S 745 mmHg 78%
    06:00 -8°C° 0 mm 7 m/S 746 mmHg 78%
    07:00 -9°C° 0 mm 7 m/S 747 mmHg 79%
    08:00 -11°C° 0 mm 7 m/S 748 mmHg 80%
    09:00 -10°C° 0 mm 6 m/S 749 mmHg 80%
    10:00 -10°C° 0 mm 6 m/S 750 mmHg 80%
    11:00 -10°C° 0 mm 6 m/S 751 mmHg 79%
    12:00 -9°C° 0 mm 6 m/S 752 mmHg 79%
    13:00 -9°C° 0 mm 6 m/S 752 mmHg 79%
    14:00 -9°C° 0 mm 6 m/S 752 mmHg 79%
    15:00 -9°C° 0 mm 6 m/S 753 mmHg 79%
    16:00 -10°C° 0 mm 5 m/S 753 mmHg 80%
    17:00 -9°C° 0 mm 4 m/S 754 mmHg 82%
    18:00 -9°C° 0 mm 3 m/S 754 mmHg 84%
    19:00 -10°C° 0 mm 3 m/S 755 mmHg 86%
    20:00 -10°C° 0 mm 2 m/S 755 mmHg 89%
    21:00 -13°C° 0 mm 2 m/S 755 mmHg 92%
    22:00 -11°C° 0 mm 1 m/S 755 mmHg 92%
    23:00 -12°C° 0 mm 1 m/S 755 mmHg 92%

    Morgen, 19 Februar, Dienstag

    Zeit Temperatur Niederschläge Wind Luftdruck Luftfeuchtigkeit
    00:00 -12°C° 0 mm 0 m/S 756 mmHg 92%
    01:00 -12°C° 0 mm 1 m/S 755 mmHg 92%
    02:00 -13°C° 0 mm 2 m/S 755 mmHg 92%
    03:00 -13°C° 0 mm 2 m/S 755 mmHg 92%
    04:00 -13°C° 0 mm 3 m/S 754 mmHg 89%
    05:00 -12°C° 0 mm 4 m/S 754 mmHg 87%
    06:00 -12°C° 0 mm 5 m/S 753 mmHg 85%
    07:00 -12°C° 0 mm 5 m/S 752 mmHg 83%
    08:00 -11°C° 0 mm 6 m/S 752 mmHg 82%
    09:00 -11°C° 0 mm 6 m/S 751 mmHg 80%
    10:00 -9°C° 0 mm 6 m/S 750 mmHg 79%
    11:00 -8°C° 0 mm 6 m/S 750 mmHg 78%
    12:00 -6°C° 0 mm 6 m/S 749 mmHg 77%
    13:00 -5°C° 0 mm 5 m/S 749 mmHg 78%
    14:00 -4°C° 0 mm 5 m/S 748 mmHg 79%
    15:00 -2°C° 0 mm 5 m/S 748 mmHg 81%
    16:00 -3°C° 0 mm 4 m/S 747 mmHg 82%
    17:00 -4°C° 0 mm 4 m/S 747 mmHg 84%
    18:00 -4°C° 0 mm 3 m/S 747 mmHg 86%
    19:00 -5°C° 0 mm 4 m/S 746 mmHg 85%
    20:00 -5°C° 0 mm 4 m/S 746 mmHg 84%
    21:00 -5°C° 0 mm 4 m/S 745 mmHg 84%
    22:00 -5°C° 0 mm 4 m/S 745 mmHg 84%
    23:00 -6°C° 0 mm 5 m/S 744 mmHg 85%

    übermorgen, 20 Februar, Mittwoch

    Zeit Temperatur Niederschläge Wind Luftdruck Luftfeuchtigkeit
    00:00 -6°C° 0 mm 5 m/S 744 mmHg 85%
    01:00 -6°C° 0 mm 5 m/S 743 mmHg 86%
    02:00 -5°C° 0 mm 5 m/S 743 mmHg 88%
    03:00 -5°C° 0 mm 5 m/S 742 mmHg 89%
    04:00 -5°C° 0.1 mm 5 m/S 741 mmHg 89%
    05:00 -4°C° 0.1 mm 5 m/S 741 mmHg 89%
    06:00 -4°C° 0.1 mm 5 m/S 740 mmHg 89%
    07:00 -4°C° 0.1 mm 5 m/S 739 mmHg 89%
    08:00 -2°C° 0.1 mm 5 m/S 739 mmHg 89%
    09:00 -2°C° 0.1 mm 5 m/S 738 mmHg 89%
    10:00 -2°C° 0.2 mm 6 m/S 738 mmHg 90%
    11:00 -2°C° 0.2 mm 6 m/S 738 mmHg 92%
    12:00 -1°C° 0.2 mm 6 m/S 738 mmHg 93%
    13:00 0°C° 0.1 mm 5 m/S 738 mmHg 94%
    14:00 0°C° 0.1 mm 5 m/S 738 mmHg 95%
    15:00 0°C° 0.1 mm 4 m/S 738 mmHg 96%
    16:00 0°C° 0 mm 5 m/S 737 mmHg 94%
    17:00 0°C° 0 mm 5 m/S 737 mmHg 93%
    18:00 0°C° 0 mm 5 m/S 737 mmHg 91%
    19:00 -1°C° 0.1 mm 5 m/S 737 mmHg 90%
    20:00 -1°C° 0.1 mm 5 m/S 736 mmHg 90%
    21:00 -1°C° 0.1 mm 5 m/S 736 mmHg 89%
    22:00 -1°C° 0.3 mm 5 m/S 736 mmHg 89%
    23:00 -1°C° 0.3 mm 5 m/S 736 mmHg 90%

    21 Februar, Donnerstag

    Zeit Temperatur Niederschläge Wind Luftdruck Luftfeuchtigkeit
    00:00 -1°C° 0.3 mm 5 m/S 736 mmHg 90%
    01:00 -2°C° 0.1 mm 4 m/S 736 mmHg 90%
    02:00 -3°C° 0.1 mm 4 m/S 736 mmHg 90%
    03:00 -5°C° 0.1 mm 3 m/S 736 mmHg 90%
    04:00 -5°C° 0.1 mm 3 m/S 736 mmHg 91%
    05:00 -5°C° 0.1 mm 3 m/S 736 mmHg 92%
    06:00 -6°C° 0.1 mm 3 m/S 736 mmHg 93%
    07:00 -5°C° 0 mm 2 m/S 736 mmHg 93%
    08:00 -5°C° 0 mm 2 m/S 736 mmHg 94%
    09:00 -5°C° 0 mm 2 m/S 736 mmHg 94%
    10:00 -4°C° 0.1 mm 2 m/S 737 mmHg 92%
    11:00 -4°C° 0.1 mm 2 m/S 737 mmHg 89%
    12:00 -3°C° 0.1 mm 2 m/S 737 mmHg 87%
    13:00 -4°C° 0 mm 3 m/S 738 mmHg 86%
    14:00 -4°C° 0 mm 3 m/S 739 mmHg 86%
    15:00 -4°C° 0 mm 3 m/S 739 mmHg 85%
    16:00 -5°C° 0.1 mm 4 m/S 740 mmHg 85%
    17:00 -6°C° 0.1 mm 6 m/S 741 mmHg 86%
    18:00 -8°C° 0.1 mm 7 m/S 742 mmHg 87%
    19:00 -9°C° 0.1 mm 7 m/S 743 mmHg 86%
    20:00 -11°C° 0.1 mm 7 m/S 744 mmHg 85%
    21:00 -12°C° 0.1 mm 7 m/S 745 mmHg 84%
    22:00 -12°C° 0.1 mm 7 m/S 745 mmHg 84%
    23:00 -13°C° 0.1 mm 7 m/S 746 mmHg 84%

    22 Februar, Freitag

    Zeit Temperatur Niederschläge Wind Luftdruck Luftfeuchtigkeit
    00:00 -13°C° 0.1 mm 7 m/S 747 mmHg 84%
    01:00 -14°C° 0.1 mm 7 m/S 748 mmHg 84%
    02:00 -14°C° 0.1 mm 7 m/S 748 mmHg 84%
    03:00 -15°C° 0.1 mm 7 m/S 749 mmHg 84%
    04:00 -16°C° 0.1 mm 8 m/S 750 mmHg 81%
    05:00 -17°C° 0.1 mm 8 m/S 751 mmHg 78%
    06:00 -17°C° 0.1 mm 8 m/S 752 mmHg 75%
    07:00 -17°C° 0 mm 8 m/S 753 mmHg 72%
    08:00 -17°C° 0 mm 8 m/S 754 mmHg 70%
    09:00 -17°C° 0 mm 8 m/S 755 mmHg 68%
    10:00 -16°C° 0 mm 8 m/S 755 mmHg 68%
    11:00 -15°C° 0 mm 8 m/S 756 mmHg 68%
    12:00 -13°C° 0 mm 8 m/S 757 mmHg 68%
    13:00 -13°C° 0 mm 7 m/S 757 mmHg 71%
    14:00 -13°C° 0 mm 7 m/S 757 mmHg 73%
    15:00 -11°C° 0 mm 6 m/S 758 mmHg 75%
    16:00 -12°C° 0 mm 5 m/S 758 mmHg 78%
    17:00 -13°C° 0 mm 5 m/S 759 mmHg 80%
    18:00 -12°C° 0 mm 4 m/S 760 mmHg 83%
    19:00 -12°C° 0 mm 4 m/S 760 mmHg 86%
    20:00 -12°C° 0 mm 3 m/S 761 mmHg 88%
    21:00 -12°C° 0 mm 3 m/S 761 mmHg 90%
    22:00 -13°C° 0 mm 3 m/S 761 mmHg 92%
    23:00 -12°C° 0 mm 2 m/S 762 mmHg 93%

    23 Februar, Samstag

    Zeit Temperatur Niederschläge Wind Luftdruck Luftfeuchtigkeit
    00:00 -13°C° 0 mm 2 m/S 762 mmHg 94%
    01:00 -13°C° 0 mm 2 m/S 762 mmHg 94%
    02:00 -11°C° 0 mm 1 m/S 762 mmHg 95%
    03:00 -11°C° 0 mm 1 m/S 762 mmHg 95%
    04:00 -11°C° 0 mm 1 m/S 762 mmHg 95%
    05:00 -11°C° 0 mm 1 m/S 761 mmHg 96%
    06:00 -11°C° 0 mm 1 m/S 761 mmHg 96%
    07:00 -10°C° 0 mm 1 m/S 761 mmHg 96%
    08:00 -10°C° 0 mm 1 m/S 760 mmHg 96%
    09:00 -12°C° 0 mm 2 m/S 760 mmHg 96%
    10:00 -10°C° 0 mm 2 m/S 759 mmHg 93%
    11:00 -10°C° 0 mm 3 m/S 759 mmHg 91%
    12:00 -9°C° 0 mm 3 m/S 758 mmHg 88%
    13:00 -8°C° 0 mm 3 m/S 758 mmHg 87%
    14:00 -8°C° 0 mm 3 m/S 757 mmHg 85%
    15:00 -8°C° 0 mm 4 m/S 756 mmHg 84%
    16:00 -7°C° 0.1 mm 3 m/S 756 mmHg 86%
    17:00 -8°C° 0.1 mm 3 m/S 756 mmHg 89%
    18:00 -8°C° 0.1 mm 3 m/S 756 mmHg 92%
    19:00 -7°C° 0.1 mm 2 m/S 755 mmHg 93%
    20:00 -7°C° 0.1 mm 2 m/S 755 mmHg 94%
    21:00 -7°C° 0.1 mm 2 m/S 755 mmHg 95%
    22:00 -7°C° 0 mm 2 m/S 755 mmHg 95%
    23:00 -6°C° 0 mm 2 m/S 755 mmHg 95%
    Mehr zeigen